Flag for Germany Past Weather in Weilheim in Oberbayern, Bavaria, Germany — Yesterday and Last 2 Weeks

Now
59 °F

Partly sunny.


Feels Like: 58 °F
Forecast: 54 / 64 °F
Wind: 7 mph from East

Location: Altenstadt Airport

Current Time: May 31, 2016 at 6:09:19 PM

Latest Report: May 31, 2016 at 5:20 PM


Visibility: N/A

Pressure: 29.89 "Hg (27.97 "Hg at 560m altitude)

Humidity: 72%

Dew Point: 50 °F

Location of Weilheim in OberbayernLocation

Past Weather in Weilheim in Oberbayern — Graph

°F

Weilheim in Oberbayern Temperature Yesterday

Maximum temperature yesterday: 64 °F (at 2:20 PM)
Minimum temperature yesterday: 52 °F (at 10:20 PM)
Average temperature yesterday: 56 °F

High & Low Weather Summary for the Past Weeks

 TemperatureHumidityPressure
High79 °F (May 22, 2:20 PM)100% (May 16, 10:20 PM)30.18 "Hg (May 16, 10:20 PM)
Low37 °F (May 16, 9:20 PM)30% (May 22, 2:20 PM)29.65 "Hg (May 29, 4:20 PM)
Average54 °F77%29.96 "Hg
* Reported May 16 4:20 PM — May 31 4:20 PM, Weilheim in Oberbayern, Weather by CustomWeather, © 2016

Note: Actual official high and low records may vary slightly from our data, if they occured in-between our weather recording intervals... More about our weather records

Advertising

Weilheim in Oberbayern Weather History for the Previous 24 Hours

Scroll right to see more
 ConditionsComfort  
Time TempWeatherWind HumidityBarometerVisibility
4:20 PM
Tue, May 31
59 °FScattered showers. Broken clouds.7 mph72%29.92 "HgN/A
3:20 PM59 °FScattered showers. Partly sunny.9 mph68%29.92 "HgN/A
2:20 PM61 °FScattered showers. Broken clouds.8 mph72%29.92 "HgN/A
2:01 PM59 °FScattered showers. Broken clouds.8 mph72%29.92 "HgN/A
1:20 PM59 °FScattered showers. Partly sunny.10 mph72%29.92 "HgN/A
12:20 PM59 °FBroken clouds.9 mph77%29.92 "HgN/A
11:20 AM59 °FPartly sunny.5 mph68%29.89 "HgN/A
10:20 AM59 °FBroken clouds.6 mph68%29.89 "HgN/A
9:20 AM57 °FBroken clouds.1 mph77%29.89 "HgN/A
8:20 AM55 °FBroken clouds.1 mph82%29.89 "HgN/A
7:20 AM50 °FPartly sunny.2 mph100%29.89 "HgN/A
6:20 AM48 °FFog.2 mph94%29.86 "HgN/A
5:20 AM48 °FFog.2 mph94%29.86 "HgN/A
4:20 AM50 °FCool.1 mph94%29.86 "HgN/A
3:20 AM50 °FCool.1 mph100%29.86 "HgN/A
2:20 AM50 °FCool.No wind100%29.86 "HgN/A
1:20 AM50 °FCool.1 mph100%29.86 "HgN/A
12:20 AM52 °FCool.1 mph94%29.86 "HgN/A
11:20 PM
Mon, May 30
52 °FCool.3 mph94%29.86 "HgN/A
10:20 PM52 °FCool.2 mph100%29.86 "HgN/A
9:20 PM54 °FCool.5 mph94%29.86 "HgN/A
8:20 PM54 °FPartly sunny.6 mph94%29.83 "HgN/A
8:00 PM54 °FLight rain. Broken clouds.6 mph94%29.83 "HgN/A
7:20 PM54 °FLight rain. Broken clouds.5 mph94%29.83 "HgN/A
6:20 PM54 °FSprinkles. Broken clouds.9 mph94%29.80 "Hg5 mi
Weather by CustomWeather, © 2016

See weather overviewHow to use our weather pages